When you browse on this site, cookies collect data to enhance your experience and personalize the content and advertising you see.
Visit our Privacy Policy to learn more. By continuing to use the site, you agree to this use of cookies and data.
  • In Portugal
  • List of Countries
  • For 7 days
  • Water Temperature
  • Satellite Maps
  • Weather Map
  • Weather Widgets
  • user-avatar
    Login

    Hourly Weather Velikaya Novoselka

    Today, 13 December, Thursday

    Time Temperature Precipitation Wind Pressure Humidity
    00:00 -1°C° 0 mm 5 mps 749 mmHg 85%
    01:00 -1°C° 0 mm 4 mps 749 mmHg 86%
    02:00 -1°C° 0 mm 4 mps 749 mmHg 88%
    03:00 -1°C° 0 mm 4 mps 750 mmHg 87%
    04:00 -2°C° 0 mm 4 mps 750 mmHg 87%
    05:00 -2°C° 0 mm 4 mps 751 mmHg 87%
    06:00 -2°C° 0 mm 4 mps 751 mmHg 87%
    07:00 -2°C° 0 mm 4 mps 751 mmHg 87%
    08:00 -1°C° 0 mm 3 mps 752 mmHg 87%
    09:00 -1°C° 0 mm 4 mps 752 mmHg 84%
    10:00 0°C° 0 mm 4 mps 752 mmHg 80%
    11:00 0°C° 0 mm 4 mps 753 mmHg 77%
    12:00 +1°C° 0 mm 4 mps 753 mmHg 75%
    13:00 +1°C° 0 mm 4 mps 753 mmHg 74%
    14:00 +2°C° 0 mm 3 mps 753 mmHg 72%
    15:00 +1°C° 0 mm 3 mps 753 mmHg 74%
    16:00 +1°C° 0 mm 3 mps 754 mmHg 76%
    17:00 +2°C° 0 mm 2 mps 754 mmHg 78%
    18:00 +1°C° 0 mm 2 mps 754 mmHg 79%
    19:00 0°C° 0 mm 3 mps 754 mmHg 81%
    20:00 -1°C° 0 mm 3 mps 754 mmHg 82%
    21:00 -1°C° 0 mm 3 mps 754 mmHg 83%
    22:00 -1°C° 0 mm 3 mps 754 mmHg 84%
    23:00 -1°C° 0 mm 3 mps 755 mmHg 85%

    Tomorrow, 14 December, Friday

    Time Temperature Precipitation Wind Pressure Humidity
    00:00 -1°C° 0 mm 3 mps 755 mmHg 86%
    01:00 -1°C° 0 mm 3 mps 755 mmHg 88%
    02:00 -1°C° 0 mm 3 mps 755 mmHg 89%
    03:00 -1°C° 0 mm 2 mps 755 mmHg 89%
    04:00 -1°C° 0 mm 2 mps 755 mmHg 89%
    05:00 -1°C° 0 mm 2 mps 755 mmHg 89%
    06:00 -1°C° 0 mm 2 mps 755 mmHg 88%
    07:00 -1°C° 0 mm 2 mps 756 mmHg 88%
    08:00 -1°C° 0 mm 2 mps 756 mmHg 87%
    09:00 0°C° 0 mm 3 mps 756 mmHg 82%
    10:00 +2°C° 0 mm 3 mps 756 mmHg 77%
    11:00 +3°C° 0 mm 3 mps 756 mmHg 71%
    12:00 +3°C° 0 mm 3 mps 757 mmHg 72%
    13:00 +4°C° 0 mm 2 mps 757 mmHg 73%
    14:00 +4°C° 0 mm 2 mps 757 mmHg 73%
    15:00 +3°C° 0 mm 2 mps 757 mmHg 77%
    16:00 +2°C° 0 mm 2 mps 757 mmHg 81%
    17:00 +2°C° 0 mm 1 mps 757 mmHg 85%
    18:00 +2°C° 0 mm 1 mps 758 mmHg 87%
    19:00 +2°C° 0 mm 1 mps 758 mmHg 88%
    20:00 +1°C° 0 mm 1 mps 758 mmHg 90%
    21:00 +1°C° 0 mm 1 mps 758 mmHg 91%
    22:00 +1°C° 0 mm 1 mps 758 mmHg 92%
    23:00 -1°C° 0 mm 2 mps 758 mmHg 93%

    Day after tomorrow, 15 December, Saturday

    Time Temperature Precipitation Wind Pressure Humidity
    00:00 -2°C° 0 mm 2 mps 759 mmHg 93%
    01:00 -2°C° 0 mm 2 mps 759 mmHg 93%
    02:00 -2°C° 0 mm 2 mps 759 mmHg 94%
    03:00 -2°C° 0 mm 2 mps 759 mmHg 93%
    04:00 -2°C° 0 mm 2 mps 759 mmHg 93%
    05:00 -3°C° 0 mm 2 mps 759 mmHg 93%
    06:00 0°C° 0 mm 1 mps 760 mmHg 92%
    07:00 0°C° 0 mm 1 mps 760 mmHg 91%
    08:00 0°C° 0 mm 1 mps 760 mmHg 91%
    09:00 +1°C° 0 mm 1 mps 760 mmHg 86%
    10:00 +1°C° 0 mm 1 mps 761 mmHg 82%
    11:00 +2°C° 0 mm 1 mps 761 mmHg 77%
    12:00 +2°C° 0 mm 1 mps 761 mmHg 76%
    13:00 +2°C° 0 mm 1 mps 761 mmHg 75%
    14:00 +2°C° 0 mm 1 mps 761 mmHg 75%
    15:00 +1°C° 0 mm 2 mps 761 mmHg 78%
    16:00 -1°C° 0 mm 2 mps 762 mmHg 80%
    17:00 -1°C° 0 mm 2 mps 762 mmHg 83%
    18:00 -1°C° 0 mm 2 mps 762 mmHg 83%
    19:00 -2°C° 0 mm 3 mps 762 mmHg 84%
    20:00 -2°C° 0 mm 3 mps 762 mmHg 84%
    21:00 -2°C° 0 mm 3 mps 762 mmHg 85%
    22:00 -4°C° 0 mm 3 mps 763 mmHg 86%
    23:00 -4°C° 0 mm 3 mps 763 mmHg 88%

    16 December, Sunday

    Time Temperature Precipitation Wind Pressure Humidity
    00:00 -4°C° 0 mm 3 mps 763 mmHg 87%
    01:00 -4°C° 0 mm 3 mps 763 mmHg 86%
    02:00 -5°C° 0 mm 3 mps 763 mmHg 86%
    03:00 -5°C° 0 mm 3 mps 763 mmHg 85%
    04:00 -5°C° 0 mm 3 mps 763 mmHg 85%
    05:00 -5°C° 0 mm 3 mps 763 mmHg 84%
    06:00 -5°C° 0 mm 4 mps 763 mmHg 84%
    07:00 -5°C° 0 mm 4 mps 763 mmHg 83%
    08:00 -4°C° 0 mm 4 mps 763 mmHg 83%
    09:00 -4°C° 0 mm 4 mps 763 mmHg 80%
    10:00 -4°C° 0 mm 5 mps 763 mmHg 77%
    11:00 -2°C° 0 mm 5 mps 763 mmHg 74%
    12:00 -2°C° 0 mm 5 mps 763 mmHg 73%
    13:00 -2°C° 0 mm 5 mps 763 mmHg 73%
    14:00 -2°C° 0 mm 5 mps 762 mmHg 73%
    15:00 -4°C° 0 mm 5 mps 762 mmHg 75%
    16:00 -4°C° 0 mm 5 mps 762 mmHg 77%
    17:00 -5°C° 0 mm 5 mps 762 mmHg 78%
    18:00 -5°C° 0 mm 5 mps 762 mmHg 79%
    19:00 -5°C° 0 mm 5 mps 762 mmHg 79%
    20:00 -5°C° 0 mm 5 mps 762 mmHg 79%
    21:00 -5°C° 0 mm 5 mps 762 mmHg 80%
    22:00 -5°C° 0 mm 5 mps 762 mmHg 80%
    23:00 -5°C° 0 mm 5 mps 762 mmHg 80%

    17 December, Monday

    Time Temperature Precipitation Wind Pressure Humidity
    00:00 -5°C° 0 mm 5 mps 762 mmHg 81%
    01:00 -5°C° 0 mm 5 mps 762 mmHg 81%
    02:00 -6°C° 0 mm 5 mps 762 mmHg 81%
    03:00 -6°C° 0 mm 5 mps 762 mmHg 81%
    04:00 -6°C° 0 mm 5 mps 761 mmHg 81%
    05:00 -6°C° 0 mm 5 mps 761 mmHg 80%
    06:00 -6°C° 0 mm 6 mps 761 mmHg 80%
    07:00 -6°C° 0 mm 6 mps 761 mmHg 80%
    08:00 -6°C° 0 mm 6 mps 761 mmHg 79%
    09:00 -5°C° 0 mm 6 mps 761 mmHg 76%
    10:00 -5°C° 0 mm 6 mps 761 mmHg 74%
    11:00 -5°C° 0 mm 6 mps 761 mmHg 71%
    12:00 -4°C° 0 mm 6 mps 761 mmHg 70%
    13:00 -4°C° 0 mm 6 mps 761 mmHg 69%
    14:00 -4°C° 0 mm 5 mps 760 mmHg 69%
    15:00 -5°C° 0 mm 5 mps 760 mmHg 71%
    16:00 -5°C° 0 mm 5 mps 760 mmHg 73%
    17:00 -6°C° 0 mm 5 mps 761 mmHg 76%
    18:00 -6°C° 0 mm 5 mps 761 mmHg 76%
    19:00 -6°C° 0 mm 5 mps 761 mmHg 76%
    20:00 -7°C° 0 mm 5 mps 761 mmHg 76%
    21:00 -7°C° 0 mm 5 mps 761 mmHg 77%
    22:00 -7°C° 0 mm 5 mps 761 mmHg 77%
    23:00 -7°C° 0 mm 5 mps 761 mmHg 77%

    18 December, Tuesday

    Time Temperature Precipitation Wind Pressure Humidity
    00:00 -7°C° 0 mm 5 mps 761 mmHg 77%
    01:00 -7°C° 0 mm 5 mps 761 mmHg 78%
    02:00 -7°C° 0 mm 5 mps 761 mmHg 78%
    03:00 -7°C° 0 mm 5 mps 761 mmHg 78%
    04:00 -7°C° 0 mm 5 mps 761 mmHg 78%
    05:00 -7°C° 0 mm 5 mps 761 mmHg 78%
    06:00 -7°C° 0 mm 5 mps 761 mmHg 79%
    07:00 -7°C° 0 mm 5 mps 761 mmHg 79%
    08:00 -7°C° 0 mm 5 mps 761 mmHg 79%
    09:00 -7°C° 0 mm 5 mps 761 mmHg 77%
    10:00 -6°C° 0 mm 5 mps 761 mmHg 75%
    11:00 -6°C° 0 mm 5 mps 761 mmHg 74%
    12:00 -5°C° 0 mm 5 mps 761 mmHg 74%
    13:00 -5°C° 0 mm 5 mps 761 mmHg 73%
    14:00 -5°C° 0 mm 5 mps 761 mmHg 73%
    15:00 -5°C° 0 mm 5 mps 761 mmHg 75%
    16:00 -5°C° 0 mm 5 mps 761 mmHg 76%
    17:00 -6°C° 0 mm 5 mps 762 mmHg 77%
    18:00 -6°C° 0 mm 5 mps 762 mmHg 78%
    19:00 -5°C° 0 mm 4 mps 762 mmHg 78%
    20:00 -5°C° 0 mm 4 mps 762 mmHg 79%
    21:00 -5°C° 0 mm 4 mps 762 mmHg 79%
    22:00 -5°C° 0 mm 4 mps 762 mmHg 79%
    23:00 -5°C° 0 mm 4 mps 762 mmHg 80%
    Show more